Location: Unspecified
(49.9820°N, 20.4363°E)
Time: 00:17:15
(UTC+02:00)

ISS - Pass Details

Date: 24 May 2018
Orbit: 402 x 407 km, 51.6° (Epoch: 24 May)

Event Time Altitude Azimuth Distance (km) Brightness Sun altitude
Rises 02:58:05 0° 284° (WNW) 2,320 -0.2 -12.5°
Enters shadow 03:00:19 - 269° (W) 1,523 -1.3 -12.3°
Exits shadow 03:07:34 - 153° (SSE) 2,210 -0.4 -11.7°
Sets 03:07:49 0° 152° (SSE) 2,305 -0.3 -11.6°
